Location: ??????
(38.0131°N, 23.7723°E)
Time: 06:37:47
(UTC+00:00)

deb Chang Zheng 4 - Pass Details

Date: 17 October 2021
Orbit: 595 x 616 km, 98.6° (Epoch: 28 November)

Event Time Altitude Azimuth Distance (km) Brightness Sun altitude
Rises 16:02:59 0° 154° (SSE) 2,821 6.8 -4.4°
Reaches altitude 10° 16:05:10 10° 149° (SSE) 1,924 5.9 -4.9°
Maximum altitude 16:09:13 52° 73° (ENE) 743 3.6 -5.6°
Drops below altitude 10° 16:13:18 10° 357° (N) 1,941 6.1 -6.4°
Sets 16:15:31 0° 353° (N) 2,850 7.0 -6.9°
